Terminal Aerodrome Forecast
Issued by NWS Houston/Galveston, TX

Home | Current Version | Previous Version | Text Only | Print | Product List | Glossary On
Versions: 1 2 3 4 5 6 7 8 9 10 11 12 13 14 15 16 17 18 19 20 21 22 23 24 25 26 27 28 29 30 31 32 33 34 35 36 37 38 39 40 41 42 43 44
000
FTUS44 KHGX 212325
TAFCLL
TAF
KCLL 212325Z 2200/2224 16007KT P6SM OVC022
     FM220700 19005KT P6SM BKN006 OVC025
     FM221000 19006KT 4SM BR OVC007
     FM221500 20010KT P6SM SCT007 BKN015
     FM221900 21010G20KT P6SM FEW007 BKN200=

USA.gov is the U.S. government's official web portal to all federal, state and local government web resources and services.